Probability
26 29 39 39 35 29 32 26 26 23 16 16 16 16 19 19 19 19 23 19 29 26 26 26 29 32 35 39 39 39 39 48 52 52 58 55 55 55 52 55 55 52 48
32 29 26 35 35 32 23 23 23 23 23 16 13 13 13 13 19 13 13 19 23 26 23 23 26 29 29 26 35 35 29 35 35 48 52 52 48 52 45 42 52 52 45
29 26 26 26 32 26 32 23 19 23 19 16 10 10 6 13 10 10 10 16 16 19 19 23 19 23 26 26 23 26 29 26 32 32 42 42 45 42 48 42 42 39 29
26 29 19 16 19 19 19 26 23 23 19 13 10 10 6 16 10 10 6 10 16 13 13 19 23 23 26 26 23 23 23 29 29 29 26 29 32 35 39 39 39 42 29
26 23 23 29 23 23 23 16 19 19 16 13 3 6 6 3 3 0 3 6 13 13 16 23 23 23 19 16 19 16 16 23 26 23 23 26 29 29 32 32 35 32 29
23 23 23 23 23 23 23 23 19 16 16 16 3 3 3 3 3 3 0 0 13 16 16 13 19 19 13 16 13 16 16 19 23 23 23 29 29 29 29 26 29 26 26
19 23 23 26 23 19 23 23 19 16 13 13 13 6 6 6 6 6 3 3 6 10 13 16 16 19 16 6 10 13 13 19 19 19 19 29 26 23 29 29 26 19 19
23 6 19 23 19 23 23 23 16 13 13 13 6 16 10 6 6 3 6 13 10 16 10 13 16 23 10 10 3 10 13 13 13 16 26 26 23 19 23 23 26 19 16
6 13 10 10 19 19 19 23 16 13 10 13 10 10 10 3 3 6 3 6 6 6 10 10 13 13 13 10 13 10 6 6 6 10 19 23 16 16 19 23 26 16 16
3 6 10 10 16 19 23 13 13 16 13 10 10 13 10 6 0 3 3 3 3 6 3 0 0 6 13 13 13 3 0 0 3 10 13 13 13 16 13 16 16 19 16
3 3 6 16 16 19 19 13 19 19 16 6 10 13 10 13 6 6 3 0 3 6 3 3 3 3 3 6 10 6 0 0 0 0 3 6 13 13 10 6 13 16 23
6 3 6 13 10 16 19 23 19 16 13 16 19 16 10 10 10 3 3 6 6 3 3 6 3 6 10 3 6 0 0 0 0 0 0 0 10 13 6 3 3 6 3
10 10 6 10 13 16 16 16 19 16 16 13 10 13 13 13 6 10 6 3 6 3 6 6 6 6 3 3 6 0 0 0 0 0 0 0 0 3 3 0 3 6 3
3 6 10 13 16 13 10 13 13 6 13 10 0 6 10 10 13 10 3 3 3 3 3 0 3 3 3 3 3 0 0 0 0 0 0 0 0 0 3 0 0 0 0
3 6 6 10 13 13 16 13 10 10 10 6 3 6 10 10 10 3 0 3 3 3 0 0 0 3 6 6 0 0 6 0 0 0 0 0 0 0 0 0 0 0 0
6 3 6 6 6 10 10 13 6 6 6 13 10 0 3 6 10 6 3 3 3 6 3 3 3 0 6 0 0 3 0 0 0 0 0 0 0 0 0 0 0 0 0
6 6 3 6 10 6 6 6 6 6 6 6 3 3 3 3 6 3 3 0 3 6 3 3 0 0 6 6 0 3 3 3 3 0 0 0 0 0 0 0 0 0 0
10 6 6 6 3 3 3 10 6 6 6 6 3 3 0 3 3 3 6 0 6 3 3 3 3 3 10 6 6 6 0 0 0 0 0 0 0 0 0 0 0 0 0
6 6 6 6 0 0 3 6 6 3 3 3 3 3 3 3 0 0 3 6 6 3 3 3 3 6 6 6 3 6 0 0 0 0 0 0 0 0 0 0 0 0 0
6 6 6 6 0 0 0 3 3 3 3 3 3 3 3 0 0 0 0 3 3 6 6 3 3 3 6 6 3 3 0 0 0 0 0 0 0 0 0 0 0 0 0
3 3 10 6 3 0 0 3 3 3 3 3 3 3 0 0 0 0 0 3 3 3 3 6 6 3 0 0 6 3 0 3 0 0 10 0 0 0 0 0 0 0 0
3 3 6 6 3 0 0 0 3 3 3 3 3 3 0 0 0 0 0 0 0 3 3 6 3 0 0 0 0 0 0 3 0 10 6 6 3 13 0 0 0 0 0
0 3 3 3 3 0 0 0 0 3 6 6 6 3 0 0 0 0 0 0 0 0 0 3 3 3 0 0 0 0 0 0 3 6 10 6 3 3 0 0 0 0 0
0 3 3 3 0 0 0 0 0 0 0 3 3 3 3 0 0 0 0 0 0 0 0 0 0 0 0 3 0 0 0 0 0 0 3 0 3 0 0 0 0 0 0
10 3 3 3 6 0 0 0 0 0 0 0 3 0 0 0 0 0 0 0 0 0 0 0 0 0 0 0 0 0 0 0 0 0 0 0 0 3 0 0 0 0 0
6 3 3 6 3 6 0 0 0 0 0 0 0 3 0 0 0 0 0 0 0 0 0 0 0 0 0 0 0 0 0 3 3 0 0 3 3 3 0 0 0 0 0
Height
5846 5844 5843 5842 5841 5840 5840 5840 5839 5839 5839 5839 5839 5839 5839 5839 5839 5840 5840 5841 5842 5843 5844 5845 5846 5847 5848 5849 5850 5852 5853 5855 5856 5857 5859 5861 5862 5864 5866 5868 5870 5872 5874
5842 5840 5839 5838 5836 5835 5835 5835 5835 5834 5834 5834 5834 5834 5834 5834 5834 5834 5835 5835 5836 5837 5838 5839 5840 5841 5842 5843 5845 5846 5847 5849 5850 5851 5853 5855 5857 5859 5861 5863 5865 5867 5870
5838 5836 5834 5833 5832 5831 5830 5830 5830 5829 5829 5829 5829 5829 5829 5829 5829 5829 5829 5829 5830 5831 5832 5833 5834 5835 5836 5837 5838 5840 5841 5842 5844 5845 5847 5849 5851 5853 5855 5857 5860 5862 5864
5833 5832 5830 5829 5827 5826 5825 5825 5825 5824 5824 5824 5824 5824 5823 5823 5823 5823 5823 5824 5824 5825 5826 5826 5827 5828 5829 5831 5832 5833 5834 5836 5837 5839 5841 5843 5845 5847 5849 5851 5853 5856 5859
5829 5827 5825 5824 5822 5821 5820 5820 5819 5819 5819 5819 5818 5818 5818 5817 5817 5817 5817 5817 5818 5818 5819 5820 5821 5821 5822 5823 5825 5826 5828 5829 5831 5832 5834 5836 5839 5841 5843 5845 5847 5850 5853
5824 5823 5821 5819 5818 5817 5815 5814 5814 5813 5813 5813 5813 5812 5812 5811 5811 5811 5811 5811 5811 5812 5812 5813 5814 5814 5815 5816 5817 5819 5820 5822 5824 5825 5827 5829 5832 5834 5836 5839 5841 5844 5846
5820 5818 5817 5815 5813 5812 5810 5809 5808 5808 5807 5807 5807 5806 5806 5805 5805 5804 5805 5805 5805 5805 5806 5806 5806 5807 5808 5809 5810 5811 5813 5814 5816 5818 5820 5822 5824 5827 5829 5832 5835 5837 5840
5816 5814 5812 5811 5809 5807 5806 5804 5803 5802 5801 5801 5801 5800 5800 5800 5799 5798 5798 5798 5798 5798 5799 5799 5799 5800 5801 5801 5802 5803 5805 5807 5808 5810 5812 5815 5817 5819 5822 5825 5827 5830 5833
5812 5810 5808 5806 5804 5802 5801 5799 5798 5797 5796 5795 5794 5794 5794 5794 5793 5793 5792 5792 5792 5792 5792 5792 5792 5793 5793 5794 5794 5796 5797 5799 5800 5802 5804 5807 5809 5811 5814 5817 5819 5822 5825
5808 5806 5804 5801 5799 5797 5796 5795 5793 5792 5791 5790 5789 5788 5787 5787 5786 5786 5786 5786 5786 5786 5785 5785 5786 5786 5786 5786 5787 5788 5789 5791 5792 5794 5796 5798 5801 5803 5806 5808 5811 5814 5817
5803 5801 5799 5796 5794 5793 5791 5789 5788 5787 5785 5784 5783 5782 5781 5780 5780 5780 5779 5779 5779 5779 5778 5778 5778 5778 5778 5779 5780 5780 5781 5783 5784 5785 5787 5790 5792 5794 5797 5799 5802 5805 5808
5798 5796 5794 5792 5790 5788 5786 5784 5783 5781 5780 5778 5777 5776 5775 5774 5774 5773 5773 5773 5772 5772 5771 5771 5771 5771 5771 5771 5772 5772 5773 5774 5775 5777 5779 5781 5783 5785 5788 5790 5793 5796 5799
5794 5792 5789 5787 5785 5783 5781 5779 5777 5776 5774 5772 5771 5770 5769 5768 5767 5767 5767 5766 5766 5765 5764 5764 5764 5764 5764 5764 5764 5764 5765 5765 5766 5768 5770 5772 5774 5776 5778 5781 5783 5787 5790
5790 5787 5785 5782 5780 5778 5776 5774 5772 5770 5768 5767 5765 5764 5763 5762 5761 5760 5760 5759 5759 5758 5758 5757 5756 5756 5756 5756 5756 5756 5756 5756 5757 5759 5760 5762 5765 5767 5769 5772 5774 5777 5781
5785 5783 5780 5778 5775 5773 5770 5768 5767 5765 5763 5761 5760 5758 5757 5756 5755 5754 5753 5752 5752 5751 5751 5750 5749 5748 5748 5748 5747 5747 5747 5748 5748 5750 5752 5754 5756 5758 5760 5763 5765 5769 5772
5781 5778 5775 5773 5770 5767 5765 5763 5762 5760 5758 5756 5754 5753 5752 5751 5749 5748 5747 5746 5745 5744 5744 5743 5742 5741 5740 5740 5739 5739 5739 5739 5740 5741 5743 5745 5747 5749 5752 5755 5758 5761 5764
5777 5774 5771 5768 5765 5762 5760 5758 5756 5754 5752 5750 5749 5748 5746 5745 5744 5743 5742 5740 5739 5738 5737 5736 5735 5734 5733 5732 5732 5731 5731 5731 5732 5733 5735 5737 5739 5742 5745 5747 5750 5753 5756
5773 5770 5766 5763 5760 5758 5755 5753 5751 5748 5746 5745 5743 5742 5741 5740 5739 5737 5736 5735 5733 5732 5730 5729 5728 5727 5726 5725 5725 5724 5724 5724 5725 5726 5728 5730 5732 5735 5738 5741 5743 5746 5749
5769 5766 5763 5759 5756 5754 5751 5748 5746 5743 5741 5739 5738 5737 5736 5735 5734 5732 5731 5729 5728 5726 5724 5723 5721 5720 5720 5719 5719 5718 5718 5718 5718 5720 5722 5724 5726 5729 5731 5734 5737 5739 5742
5765 5762 5758 5755 5753 5750 5747 5744 5741 5739 5736 5734 5733 5732 5731 5730 5729 5727 5726 5725 5723 5721 5719 5717 5716 5715 5715 5714 5713 5713 5713 5712 5713 5714 5716 5718 5720 5722 5725 5728 5730 5733 5735
5761 5758 5755 5752 5749 5746 5743 5740 5738 5735 5732 5730 5729 5728 5727 5726 5724 5723 5722 5720 5719 5717 5715 5713 5712 5711 5710 5709 5709 5708 5708 5708 5708 5709 5711 5712 5714 5716 5718 5721 5724 5726 5729
5758 5754 5751 5748 5745 5742 5739 5737 5734 5732 5729 5727 5725 5724 5723 5721 5720 5718 5717 5715 5714 5713 5712 5710 5709 5707 5707 5706 5705 5704 5704 5704 5705 5706 5707 5708 5709 5711 5713 5715 5717 5720 5722
5754 5751 5748 5745 5742 5739 5736 5733 5731 5728 5726 5724 5722 5720 5719 5717 5716 5714 5712 5711 5710 5709 5708 5707 5706 5705 5704 5703 5701 5700 5701 5701 5701 5702 5703 5704 5705 5706 5708 5710 5712 5713 5715
5751 5748 5745 5742 5739 5736 5733 5730 5727 5724 5722 5720 5718 5717 5715 5713 5712 5710 5709 5708 5706 5706 5705 5704 5703 5702 5701 5700 5698 5698 5698 5698 5698 5699 5699 5700 5701 5702 5703 5705 5706 5708 5709
5747 5745 5742 5739 5736 5733 5730 5727 5724 5721 5719 5717 5715 5713 5711 5710 5708 5706 5705 5704 5703 5702 5702 5701 5700 5700 5699 5698 5697 5696 5696 5696 5696 5696 5696 5697 5697 5698 5699 5700 5701 5703 5703
5743 5741 5738 5735 5733 5730 5727 5725 5722 5719 5717 5715 5712 5710 5708 5707 5705 5703 5702 5701 5700 5700 5699 5699 5698 5697 5697 5696 5695 5694 5694 5694 5693 5693 5693 5694 5694 5695 5695 5696 5696 5697 5698
Wind_Speed
15 16 16 16 16 17 17 18 18 19 20 20 21 21 21 21 22 22 21 21 22 23 22 22 23 24 25 25 24 24 25 25 25 25 25 25 25 25 25 24 23 22 22
16 17 17 17 17 17 18 18 18 19 20 20 20 20 20 20 21 22 23 22 22 23 23 23 24 24 25 25 25 25 25 26 26 26 26 25 25 26 26 26 25 24 23
17 18 18 17 17 18 18 18 18 19 19 19 20 20 20 21 21 21 22 22 22 23 23 24 25 26 26 26 26 26 26 27 27 27 27 27 26 26 26 27 27 27 25
17 17 17 17 17 18 19 19 19 19 19 19 20 20 21 22 22 22 22 22 22 23 23 23 23 24 25 27 27 27 26 26 27 27 27 27 27 27 27 28 29 29 27
16 17 17 17 17 18 19 19 20 20 21 21 21 21 22 22 23 23 24 24 23 23 23 24 24 24 24 25 27 27 27 27 28 28 27 27 28 29 28 28 29 29 29
17 17 17 17 18 19 19 19 20 21 21 22 22 22 23 23 23 24 24 25 25 25 24 24 24 25 25 26 27 28 28 29 29 29 28 28 29 29 29 29 30 30 30
17 17 17 17 18 18 19 19 20 20 21 22 22 22 23 23 23 22 22 23 24 25 25 25 25 25 26 26 27 27 28 29 29 30 30 30 29 29 30 30 31 31 31
17 17 17 17 18 19 19 19 19 20 21 21 21 22 23 23 23 23 23 23 23 24 24 24 25 24 25 26 27 27 28 29 29 30 31 32 31 31 31 31 31 32 32
17 17 18 18 19 19 19 19 18 18 18 19 21 22 22 23 23 22 22 23 23 23 24 24 25 24 25 26 26 27 27 28 29 30 32 32 33 33 32 33 33 32 32
18 18 19 19 19 19 19 19 18 19 19 20 20 21 21 22 21 21 22 22 23 24 24 24 24 24 25 26 26 26 27 28 29 30 32 33 33 34 34 34 34 34 33
18 18 18 18 18 18 18 19 19 19 20 20 20 20 21 21 21 21 22 23 23 24 24 25 25 25 25 25 26 26 27 28 29 30 31 32 33 34 34 34 35 34 35
17 18 18 18 18 18 18 19 19 19 19 20 20 20 21 21 22 22 22 23 23 24 24 25 25 26 26 26 26 27 28 29 29 31 31 32 33 33 34 35 36 36 36
18 18 18 18 19 19 19 19 19 19 19 19 19 20 20 21 21 21 21 22 23 24 24 24 25 25 25 26 26 27 27 28 29 30 31 31 33 34 34 35 35 36 37
18 18 18 18 19 19 19 19 19 18 18 19 19 19 20 20 20 21 21 22 22 23 23 23 24 24 24 25 25 26 27 28 30 30 31 32 32 33 34 34 34 35 36
18 18 18 18 19 18 18 18 18 17 18 18 18 19 19 18 19 20 20 21 21 21 22 23 23 24 24 24 24 25 26 27 28 29 30 30 31 31 33 33 33 34 35
18 18 17 18 18 18 18 18 18 18 18 18 18 18 18 17 18 18 19 20 20 20 21 21 22 23 24 25 25 25 26 26 26 27 28 29 29 29 30 31 32 32 34
17 17 18 18 18 18 18 18 18 19 18 17 17 17 17 17 17 17 18 18 19 20 21 21 22 23 22 22 23 23 24 25 25 26 26 26 26 27 28 28 29 30 31
16 17 17 18 18 17 17 17 18 18 18 17 17 17 17 16 16 17 17 17 18 19 19 20 20 21 21 21 21 21 22 23 23 23 24 25 25 26 26 27 28 28 29
17 18 18 17 17 16 16 16 17 17 16 16 16 16 16 16 16 16 16 16 16 17 18 18 17 18 18 18 18 19 19 20 21 21 22 23 23 24 26 26 27 27 27
17 17 17 17 17 16 16 16 16 16 15 15 15 15 15 15 15 15 15 15 15 16 17 16 16 15 16 16 17 17 17 17 18 19 20 21 22 23 24 25 26 26 26
17 17 17 17 17 16 16 15 15 15 15 14 14 14 14 14 14 14 14 15 15 15 15 15 14 14 13 14 14 15 15 15 16 17 18 19 20 22 23 24 25 25 26
17 17 17 17 16 16 15 15 15 15 14 14 13 14 13 13 13 14 14 14 14 14 13 13 12 12 11 12 13 13 13 13 13 15 16 17 19 20 21 22 24 24 25
16 16 16 16 15 15 15 15 15 14 14 13 13 13 13 13 13 13 13 13 13 12 12 12 11 11 10 10 11 11 10 11 12 12 14 15 17 18 19 20 22 23 24
16 16 15 15 15 14 15 15 15 14 14 13 13 13 13 12 12 12 12 12 11 11 10 11 11 11 10 10 9 9 9 10 10 11 13 14 16 17 18 19 20 20 21
17 16 15 15 14 14 15 15 14 13 13 13 13 13 12 11 11 11 11 11 10 10 9 9 10 10 10 9 8 9 9 9 9 10 11 12 14 15 16 18 19 19 19
17 16 15 14 14 14 14 14 13 13 12 12 12 12 11 11 11 11 11 10 10 9 9 8 9 10 10 9 9 8 8 9 9 9 10 11 12 14 15 16 17 18 18
Wind_Direction
286 286 285 283 281 279 277 272 270 268 267 268 267 267 266 264 263 262 261 260 258 257 256 255 254 253 251 249 248 248 248 249 248 246 245 245 243 243 243 243 243 243 241
288 287 287 285 282 280 278 274 270 270 269 269 268 265 264 264 265 263 261 261 260 258 257 257 255 253 251 250 248 249 250 250 249 247 245 244 244 243 243 242 240 240 240
286 287 289 287 283 280 278 276 274 272 271 270 270 270 267 265 266 264 264 263 263 262 260 259 256 253 251 251 250 250 250 250 250 248 246 245 245 245 243 241 240 239 240
290 290 289 289 287 282 277 277 275 273 273 274 274 274 272 270 268 265 263 263 262 262 261 259 256 254 253 252 252 250 250 248 247 248 246 244 244 244 243 241 239 239 238
292 290 289 288 286 283 280 277 275 274 274 274 274 274 273 271 269 267 264 262 260 260 259 258 258 257 256 254 252 251 251 248 247 246 246 245 244 243 243 242 240 238 238
294 292 290 287 285 284 283 279 276 274 274 275 274 274 274 273 271 269 265 263 262 261 260 261 258 258 257 255 253 252 251 249 247 246 245 244 244 243 242 241 241 240 239
295 294 295 293 289 287 286 282 279 277 277 276 274 274 274 273 272 270 266 265 264 263 262 262 260 258 257 256 254 253 250 249 248 246 245 244 244 242 241 241 241 241 240
297 297 296 294 293 291 289 285 282 280 279 277 276 275 275 273 271 269 266 266 266 265 263 261 261 260 258 256 254 251 250 249 247 246 246 246 245 244 242 241 242 241 240
298 298 297 294 293 293 291 288 284 284 283 280 278 277 276 274 272 269 266 265 265 265 264 264 262 262 261 259 256 252 251 250 249 247 246 246 246 245 245 243 242 241 240
299 296 295 294 294 295 292 287 283 284 283 282 279 279 277 274 272 269 267 265 265 265 266 265 264 263 262 259 258 253 251 250 250 249 248 247 247 247 246 244 242 241 240
301 300 298 299 297 296 293 289 286 285 284 283 281 279 277 272 270 270 268 267 266 267 266 264 263 263 263 261 259 256 253 252 252 251 249 248 248 247 246 247 245 243 241
304 303 299 298 298 297 295 291 289 287 286 284 282 279 277 272 271 271 270 270 269 269 268 266 264 264 264 263 262 259 255 253 252 251 250 248 247 248 247 248 247 244 243
306 305 303 299 299 298 295 291 289 288 287 285 283 281 279 276 273 272 271 272 271 270 270 269 267 266 264 264 264 262 257 254 252 251 249 248 248 249 249 248 246 244 243
306 305 305 304 300 298 295 294 290 289 287 286 284 281 280 279 277 275 274 274 272 270 270 271 270 268 265 265 265 264 260 256 252 250 249 249 249 249 248 247 246 243 241
305 301 302 304 302 299 297 297 294 291 290 289 286 283 283 282 280 278 275 275 274 272 271 269 269 268 267 266 266 265 261 258 255 252 249 248 248 248 247 246 245 243 241
304 303 303 305 305 301 298 297 295 293 291 289 288 288 288 284 283 281 278 276 275 274 272 271 270 270 270 269 267 265 262 259 258 254 250 248 246 245 244 243 244 244 242
305 304 303 305 304 302 299 295 294 292 290 289 288 289 289 286 285 284 282 279 277 278 277 274 274 273 271 269 268 267 263 260 259 255 250 246 244 244 243 243 245 244 242
307 308 309 308 307 304 302 300 297 296 293 290 288 287 288 288 286 285 283 281 282 282 281 278 277 275 273 272 270 269 265 261 257 254 249 247 244 242 241 242 243 243 242
308 309 310 311 311 310 308 306 303 301 298 293 289 286 284 285 287 286 285 284 286 286 284 283 281 275 273 275 273 269 266 261 255 252 249 247 245 242 241 241 242 243 242
310 310 310 312 312 312 311 308 308 309 305 299 293 288 287 288 286 286 285 286 290 289 287 284 285 277 274 277 276 270 268 262 255 252 250 247 246 244 242 241 242 242 241
310 308 309 312 312 311 309 309 309 311 309 303 298 295 292 290 290 288 287 288 290 291 292 287 290 282 276 279 279 273 269 259 254 249 249 249 247 245 243 241 242 244 244
311 311 309 310 313 314 312 311 311 313 311 305 299 296 295 293 292 291 290 290 290 291 291 292 291 286 279 282 279 273 264 257 253 249 248 249 248 247 244 244 245 247 247
312 312 312 314 317 320 319 315 314 312 308 304 302 299 298 298 295 295 295 295 292 292 291 293 294 290 284 283 281 271 262 261 258 253 250 251 249 247 247 246 248 249 248
307 308 310 313 315 316 318 317 315 313 311 307 304 301 299 298 296 296 297 296 295 293 291 290 291 291 288 286 274 265 263 264 259 255 252 249 247 248 247 247 251 250 249
300 303 305 310 312 313 317 320 319 317 313 310 305 301 301 300 299 298 296 295 292 291 287 289 292 292 292 290 277 268 268 267 264 259 254 251 250 249 248 248 250 250 247
296 297 300 304 309 313 318 321 323 324 320 320 317 310 305 305 307 305 299 295 289 289 288 289 290 292 293 289 279 272 268 269 267 265 261 258 253 253 254 253 253 251 245